Flag for U.S.A. Weather past 2 weeks in Hayward, California, U.S.A.

Now
70 °F

Sunny.


Feels Like: 75 °F
Forecast: 61 / 69 °F
Wind: 12 mph from West

Location: Hayward Air Terminal

Current Time: Oct 24, 2014 at 5:21:00 PM

Latest Report: Oct 24, 2014 at 4:54 PM


Visibility: 10 mi

Pressure: 29.91 "Hg

Humidity: 64%

Dew point: 57 °F

Location of HaywardLocation

Historic Weather in Hayward — Graph

°F

Hayward temperature yesterday

Maximum temperature yesterday: 73 °F (at 2:54 PM)
Minimum temperature yesterday: 56 °F (at 1:54 AM)
Average temperature yesterday: 64 °F

Past Weeks' High & Low Weather Summary

 TemperatureHumidityPressure
High88 °F (Oct 12, 2:54 PM)100% (Oct 9, 7:54 PM)30.13 "Hg (Oct 9, 7:54 PM)
Low50 °F (Oct 21, 6:54 AM)12% (Oct 13, 12:54 PM)29.85 "Hg (Oct 14, 4:54 PM)
Average65 °F74%30.00 "Hg
* Reported Oct 9 3:54 PM — Oct 24 3:54 PM, Hayward, Weather by CustomWeather, © 2014

Note: Actual official high and low records may vary slightly from our data, if they occured in-between our weather recording intervals... More about our weather records

Advertising

Hayward weather history for previous 24 hours

 ConditionsComfort  
Time TempWeatherWind HumidityBarometerVisibility
3:54 PM
Oct 24
71 °FSunny.13 mph61%29.93 "Hg10 mi
2:54 PM75 °FSunny.16 mph54%29.92 "Hg10 mi
1:54 PM73 °FSunny.12 mph55%29.93 "Hg10 mi
12:54 PM73 °FSunny.8 mph53%29.95 "Hg10 mi
11:54 AM70 °FSunny.6 mph61%29.98 "Hg10 mi
10:54 AM65 °FSunny.No wind73%29.98 "Hg10 mi
9:54 AM65 °FSunny.No wind76%29.99 "Hg10 mi
8:54 AM61 °FSunny.3 mph81%30.00 "Hg10 mi
7:54 AM57 °FClear.5 mph90%29.99 "Hg10 mi
6:54 AM56 °FClear.3 mph93%29.98 "Hg10 mi
5:54 AM58 °FClear.3 mph87%29.98 "Hg10 mi
4:54 AM60 °FClear.5 mph83%29.97 "Hg10 mi
3:54 AM61 °FClear.6 mph83%29.98 "Hg10 mi
2:54 AM61 °FClear.7 mph83%29.98 "Hg10 mi
1:54 AM62 °FClear.9 mph80%30.00 "Hg10 mi
12:54 AM63 °FClear.6 mph84%30.00 "Hg10 mi
11:54 PM
Oct 23
60 °FClear.5 mph96%30.01 "Hg10 mi
10:54 PM62 °FClear.3 mph90%30.00 "Hg10 mi
9:54 PM64 °FClear.No wind84%30.00 "Hg10 mi
8:54 PM63 °FClear.No wind93%29.99 "Hg10 mi
7:54 PM62 °FClear.No wind100%29.99 "Hg10 mi
6:54 PM63 °FSunny.3 mph100%29.99 "Hg10 mi
5:54 PM66 °FSunny.8 mph90%29.99 "Hg10 mi
Weather by CustomWeather, © 2014

See weather overviewHow to use our weather pages